This demonstration page uses our WeatherBlox Daily Observations layout. Learn more.

Left ArrowRight Arrow

39.08367, -84.50855

Hourly Observations for June 29, 2015

Temp ( °F °C ) Dew Point ( °F °C ) Humidity (%) Winds ( mph kmh ) Pressure ( in mb ) Visibility ( mi km ) Precip ( " mm )
12:53 am 00:53 Clear 64 17.8 60 15.6 87 87 N N/A 29.91 1013 10 16 N/A
1:53 am 01:53 Cloudy 64 17.8 61 16.1 90 90 N N/A 29.90 1013 10 16 N/A
2:53 am 02:53 Mostly Cloudy 63 17.2 61 16.1 93 93 N N/A 29.89 1012 10 16 N/A
3:53 am 03:53 Cloudy 63 17.2 61 16.1 93 93 N N/A 29.88 1012 10 16 N/A
4:53 am 04:53 Cloudy with Light Rain 63 17.2 62 16.7 97 97 N N/A 29.87 1012 10 16 0.01 0.25
5:53 am 05:53 Cloudy with Heavy Rain 63 17.2 59 15 87 87 NNW 7 11 29.90 1012 4 6 0.09 2.29
6:53 am 06:53 Cloudy with Light Rain 62 16.7 60 15.6 93 93 NE 3 6 29.88 1012 10 16 0.14 3.56
7:53 am 07:53 Cloudy with Light Rain 62 16.7 60 15.6 93 93 N N/A 29.87 1012 10 16 N/A
8:04 am 08:04 Cloudy with Heavy Rain 62 16.7 61 16.1 96 96 N N/A 29.88 1012 2 3 0.06 1.52
8:12 am 08:12 Cloudy with Light Rain 63 17 61 16 94 94 VRB 3 6 29.88 1012 3 5 N/A
8:47 am 08:47 Cloudy with Heavy Rain 63 17 59 15 88 88 SW 7 11 29.88 1012 2 3 0.17 4.32
8:53 am 08:53 Cloudy with Heavy Rain 61 16.1 59 15 93 93 SSE 6 9 29.88 1012 1 2 0.29 7.37
8:59 am 08:59 Cloudy with Light Rain 61 16.1 59 15 93 93 ESE 7 11 29.88 1012 10 16 N/A
9:53 am 09:53 Cloudy with Light Rain 62 16.7 60 15.6 93 93 S 7 11 29.87 1011 10 16 0.02 0.51
10:53 am 10:53 Cloudy with Light Rain 62 16.7 61 16.1 96 96 S 7 11 29.85 1011 10 16 0.04 1.02
11:08 am 11:08 Cloudy with Light Rain 63 17.2 61 16.1 93 93 VRB 3 6 29.85 1011 9 14 N/A
11:53 am 11:53 Cloudy with Light Rain 64 17.8 62 16.7 93 93 N N/A 29.84 1011 9 14 N/A
12:53 pm 12:53 Cloudy 65 18.3 63 17.2 93 93 VRB 5 7 29.83 1010 10 16 N/A
1:53 pm 13:53 Cloudy 68 20 65 18.3 90 90 SSW 3 6 29.82 1010 10 16 N/A
2:19 pm 14:19 Partly Cloudy 72 22.2 67 19.4 84 84 SSW 6 9 29.83 1010 10 16 N/A
2:31 pm 14:31 Mostly Cloudy 72 22.2 67 19.4 84 84 S 7 11 29.83 1010 10 16 N/A
2:42 pm 14:42 Mostly Cloudy 73 23 66 19 78 78 SSE 7 11 29.80 1009 10 16 N/A
2:49 pm 14:49 Cloudy 73 23 68 20 83 83 VRB 3 6 29.80 1009 10 16 N/A
2:53 pm 14:53 Mostly Cloudy 74 23.3 67 19.4 79 79 S 5 7 29.80 1009 10 16 N/A
3:04 pm 15:04 Mostly Cloudy 75 24 70 21 83 83 SW 6 9 29.80 1009 10 16 N/A
3:53 pm 15:53 Mostly Cloudy 78 25.6 68 20 71 71 SSW 6 9 29.76 1008 10 16 N/A
4:53 pm 16:53 Mostly Sunny 81 27.2 65 18.3 58 58 WSW 14 22 29.75 1007 10 16 N/A
5:53 pm 17:53 Partly Cloudy 78 25.6 66 18.9 67 67 VRB 7 11 29.77 1008 10 16 N/A
6:53 pm 18:53 Mostly Cloudy 76 24.4 66 18.9 72 72 WNW 6 9 29.77 1008 10 16 N/A
7:53 pm 19:53 Partly Cloudy 75 23.9 66 18.9 74 74 WNW 6 9 29.78 1009 10 16 N/A
8:23 pm 20:23 Partly Cloudy 74 23.3 65 18.3 74 74 NNW 8 13 29.80 1009 10 16 N/A
8:53 pm 20:53 Mostly Cloudy 73 22.8 65 18.3 76 76 WNW 3 6 29.81 1009 10 16 N/A
9:53 pm 21:53 Mostly Clear 68 20 66 18.9 93 93 N N/A 29.81 1010 10 16 N/A
10:53 pm 22:53 Mostly Clear 66 18.9 65 18.3 96 96 ENE 3 6 29.83 1010 9 14 N/A
11:53 pm 23:53 Mostly Clear 66 18.9 65 18.3 96 96 N N/A 29.83 1010 8 13 N/A

Powered by AerisWeather